TimeEDT,TemperatureF,Dew PointF,Humidity,Sea Level PressureIn,VisibilityMPH,Wind Direction,Wind SpeedMPH,Gust SpeedMPH,PrecipitationIn,Events,Conditions,WindDirDegrees,DateUTC
12:53 AM,51.1,37.0,59,29.59,10.0,South,10.4,-,N/A,,Overcast,190,2012-10-19 04:53:00
1:53 AM,51.1,36.0,56,29.58,10.0,South,10.4,-,N/A,,Overcast,180,2012-10-19 05:53:00
2:53 AM,51.1,36.0,56,29.56,10.0,South,9.2,-,N/A,,Overcast,180,2012-10-19 06:53:00
3:53 AM,51.1,36.0,56,29.56,10.0,South,11.5,-,0.00,Rain,Light Rain,180,2012-10-19 07:53:00
4:53 AM,48.9,39.0,69,29.55,10.0,South,11.5,-,0.00,Rain,Light Rain,190,2012-10-19 08:53:00
5:53 AM,48.9,39.9,71,29.54,10.0,South,12.7,-,0.00,Rain,Light Rain,180,2012-10-19 09:53:00
6:53 AM,48.0,41.0,77,29.55,10.0,SSW,8.1,-,0.00,,Overcast,210,2012-10-19 10:53:00
7:53 AM,48.0,41.0,77,29.55,10.0,South,5.8,-,N/A,,Overcast,190,2012-10-19 11:53:00
8:53 AM,48.9,39.9,71,29.55,10.0,South,5.8,-,N/A,,Overcast,180,2012-10-19 12:53:00
9:53 AM,50.0,39.9,68,29.56,10.0,South,10.4,-,0.00,Rain,Light Rain,180,2012-10-19 13:53:00
10:53 AM,52.0,42.1,69,29.55,10.0,SSW,13.8,-,0.00,,Overcast,200,2012-10-19 14:53:00
11:53 AM,50.0,42.1,74,29.56,10.0,WSW,12.7,-,0.00,Rain,Light Rain,240,2012-10-19 15:53:00
12:53 PM,50.0,44.1,80,29.57,10.0,SW,10.4,-,0.00,Rain,Light Rain,230,2012-10-19 16:53:00
1:53 PM,48.9,45.0,86,29.57,10.0,SSW,13.8,-,0.00,Rain,Light Rain,210,2012-10-19 17:53:00
2:53 PM,46.9,43.0,86,29.58,10.0,SW,13.8,-,0.05,Rain,Light Rain,230,2012-10-19 18:53:00
3:53 PM,48.9,45.0,86,29.58,10.0,SW,9.2,-,0.01,,Overcast,230,2012-10-19 19:53:00
4:08 PM,48.2,44.6,87,29.58,10.0,SW,12.7,-,0.00,Rain,Light Rain,230,2012-10-19 20:08:00
4:22 PM,48.2,44.6,87,29.59,10.0,SW,13.8,-,0.00,Rain,Light Rain,220,2012-10-19 20:22:00
4:42 PM,48.2,44.6,87,29.60,10.0,SW,10.4,-,0.00,Rain,Light Rain,220,2012-10-19 20:42:00
4:53 PM,48.0,45.0,89,29.60,6.0,SW,13.8,18.4,0.00,Rain,Light Rain,230,2012-10-19 20:53:00
5:17 PM,48.2,44.6,87,29.60,10.0,SW,10.4,-,0.01,,Overcast,230,2012-10-19 21:17:00
5:35 PM,48.2,44.6,87,29.61,8.0,WSW,9.2,-,0.01,Rain,Light Rain,240,2012-10-19 21:35:00
5:46 PM,48.2,44.6,87,29.61,9.0,WSW,9.2,-,0.01,,Overcast,240,2012-10-19 21:46:00
5:53 PM,48.0,45.0,89,29.62,10.0,WSW,13.8,-,0.01,,Overcast,240,2012-10-19 21:53:00
6:04 PM,48.2,44.6,87,29.62,10.0,WSW,9.2,-,N/A,,Overcast,240,2012-10-19 22:04:00
6:28 PM,48.2,44.6,87,29.63,10.0,WSW,10.4,-,N/A,,Overcast,240,2012-10-19 22:28:00
6:53 PM,48.0,45.0,89,29.64,10.0,SW,10.4,-,N/A,,Overcast,230,2012-10-19 22:53:00
7:53 PM,48.0,44.1,86,29.65,10.0,SW,10.4,-,N/A,,Overcast,230,2012-10-19 23:53:00
8:20 PM,48.2,44.6,87,29.66,10.0,SW,11.5,-,N/A,,Overcast,230,2012-10-20 00:20:00
8:53 PM,48.0,45.0,89,29.67,10.0,SW,11.5,-,0.00,,Overcast,220,2012-10-20 00:53:00
9:46 PM,48.2,44.6,87,29.68,10.0,SW,13.8,-,0.00,,Overcast,230,2012-10-20 01:46:00
9:53 PM,48.0,45.0,89,29.68,10.0,SW,11.5,-,0.00,,Overcast,230,2012-10-20 01:53:00
10:12 PM,48.2,44.6,87,29.68,10.0,WSW,12.7,-,N/A,,Overcast,240,2012-10-20 02:12:00
10:53 PM,46.9,44.1,90,29.69,10.0,WSW,10.4,-,N/A,,Mostly Cloudy,240,2012-10-20 02:53:00
11:34 PM,48.2,44.6,87,29.69,10.0,WSW,9.2,-,N/A,,Overcast,250,2012-10-20 03:34:00
11:53 PM,48.0,45.0,89,29.70,10.0,WSW,10.4,-,N/A,,Overcast,240,2012-10-20 03:53:00